Zurück zum Katalog

STARLINK-5460

AktivKommunikationVLEO
NORAD 55671·PAYLOAD·🇺🇸 United States

Gestartet Feb 17, 2023 von Vandenberg Space Force Base

Loading…

Nächste Überflüge (nächste 24 Stunden)

TLE

AktuellSource: CelesTrak SupGP

Epoche: Sep 14, 2026, 20:53 UTC

1 55671C 23021AV  26257.87062500  .00038491  00000+0  32251-2 0  2578
2 55671  70.0020  47.6627 0003194 273.4331 198.4873 14.98318064    12

Verfolge STARLINK-5460 in Echtzeit mit AllMySat

Download on the App Store